Flag for United Kingdom Weather past 2 weeks in Inverness, Scotland, United Kingdom

Now
43 °F

Passing clouds.


Feels Like: 40 °F
Forecast: N/A
Wind: 5 mph from West

Location: Inverness / Dalcross

Current Time: Feb 28, 2015 at 11:21:47 PM

Latest Report: Feb 28, 2015 at 10:50 PM


Visibility: N/A

Pressure: 28.59 "Hg

Humidity: 76%

Dew point: 36 °F

Location of InvernessLocation

Historic Weather in Inverness — Graph

°F

Inverness temperature yesterday

Maximum temperature yesterday: 45 °F (at 12:20 PM)
Minimum temperature yesterday: 36 °F (at 12:20 AM)
Average temperature yesterday: 41 °F

Past Weeks' High & Low Weather Summary

 TemperatureHumidityPressure
High57 °F (Feb 18, 12:50 PM)100% (Feb 13, 10:20 PM)30.24 "Hg (Feb 13, 10:20 PM)
Low21 °F (Feb 14, 4:20 AM)58% (Feb 15, 2:20 PM)28.47 "Hg (Feb 23, 6:20 PM)
Average40 °F82%29.52 "Hg
* Reported Feb 13 10:20 PM — Feb 28 10:20 PM, Inverness, Weather by CustomWeather, © 2015

Note: Actual official high and low records may vary slightly from our data, if they occured in-between our weather recording intervals... More about our weather records

Advertising

Inverness weather history for previous 24 hours

 ConditionsComfort  
Time TempWeatherWind HumidityBarometerVisibility
10:20 PM
Sat, Feb 28
43 °FPassing clouds.10 mph76%28.62 "HgN/A
9:50 PM43 °FPassing clouds.5 mph81%28.65 "HgN/A
9:20 PM41 °FPassing clouds.5 mph81%28.71 "HgN/A
8:50 PM43 °FQuite cool.9 mph81%28.74 "HgN/A
8:20 PM43 °FLight rain. Passing clouds.14 mph76%28.77 "HgN/A
7:50 PM43 °FPassing clouds.14 mph76%28.82 "HgN/A
7:20 PM43 °FPassing clouds.7 mph71%28.85 "HgN/A
6:50 PM43 °FPassing clouds.16 mph76%28.88 "HgN/A
6:20 PM43 °FPassing clouds.8 mph76%28.94 "HgN/A
5:50 PM43 °FPassing clouds.10 mph76%28.97 "HgN/A
5:20 PM43 °FPassing clouds.12 mph76%29.00 "HgN/A
4:50 PM45 °FLight rain. Scattered clouds.13 mph76%29.03 "HgN/A
4:20 PM45 °FLight rain. Partly sunny.15 mph71%29.06 "HgN/A
3:50 PM46 °FPassing clouds.13 mph66%29.09 "HgN/A
3:20 PM46 °FPassing clouds.14 mph66%29.12 "HgN/A
2:50 PM46 °FLight rain. Scattered clouds.13 mph71%29.15 "HgN/A
2:20 PM46 °FLight rain. Scattered clouds.15 mph71%29.18 "HgN/A
1:50 PM46 °FScattered clouds.23 mph71%29.18 "HgN/A
1:20 PM48 °FScattered clouds.18 mph71%29.21 "HgN/A
12:50 PM46 °FPassing clouds.21 mph76%29.24 "HgN/A
12:20 PM46 °FScattered clouds.18 mph76%29.27 "HgN/A
11:50 AM46 °FScattered clouds.18 mph76%29.30 "HgN/A
11:20 AM46 °FPassing clouds.15 mph76%29.30 "HgN/A
10:50 AM45 °FPassing clouds.16 mph81%29.30 "HgN/A
10:20 AM45 °FScattered clouds.17 mph81%29.33 "HgN/A
9:50 AM45 °FScattered clouds.17 mph76%29.33 "HgN/A
9:20 AM45 °FScattered clouds.10 mph76%29.36 "HgN/A
8:50 AM43 °FScattered clouds.9 mph81%29.36 "HgN/A
8:20 AM43 °FScattered clouds.17 mph81%29.39 "HgN/A
7:50 AM41 °FScattered clouds.9 mph81%29.39 "HgN/A
7:20 AM43 °FScattered clouds.15 mph76%29.39 "HgN/A
6:50 AM43 °FPassing clouds.10 mph76%29.39 "HgN/A
6:20 AM43 °FPassing clouds.8 mph81%29.39 "HgN/A
5:50 AM41 °FPassing clouds.14 mph87%29.39 "HgN/A
5:20 AM43 °FLight rain. Passing clouds.20 mph81%29.39 "HgN/A
4:50 AM43 °FLight rain. Passing clouds.20 mph81%29.39 "HgN/A
4:20 AM43 °FPassing clouds.17 mph81%29.39 "HgN/A
3:20 AM43 °FPassing clouds.22 mph87%29.42 "HgN/A
2:50 AM43 °FPassing clouds.23 mph87%29.39 "HgN/A
2:20 AM43 °FPassing clouds.14 mph87%29.39 "HgN/A
1:50 AM43 °FPassing clouds.18 mph87%29.42 "HgN/A
1:20 AM45 °FPassing clouds.18 mph81%29.42 "HgN/A
12:50 AM45 °FOvercast.23 mph81%29.42 "HgN/A
12:20 AM45 °FMostly cloudy.25 mph81%29.42 "HgN/A
11:50 PM
Fri, Feb 27
45 °FMostly cloudy.20 mph76%29.42 "HgN/A
11:20 PM43 °FPassing clouds.18 mph76%29.45 "HgN/A
Weather by CustomWeather, © 2015

See weather overviewHow to use our weather pages